Regional Weather Roundup
Issued by NWS

Home | Current Version | Previous Version | Text Only | Print | Product List | Glossary Off
Versions: 1 2 3 4 5 6 7 8 9 10 11 12 13 14 15 16 17 18 19 20 21 22 23 24 25 26 27 28 29 30 31 32 33 34 35 36 37 38 39 40 41 42 43 44 45 46 47 48 49 50

000
ASUS43 KLOT 110106
RWRIL

ILLINOIS REGIONAL WEATHER ROUNDUP
NATIONAL WEATHER SERVICE CHICAGO/ROMEOVILLE IL
800 PM CDT THU JUL 10 2014

NOTE: "FAIR" INDICATES FEW OR NO CLOUDS BELOW 12,000 FEET WITH NO
SIGNIFICANT WEATHER AND/OR OBSTRUCTIONS TO VISIBILITY.

* THESE STATIONS ARE NOT UNDER NWS QUALITY CONTROL. THEY ALSO MAY NOT
  REPORT WEATHER SUCH AS PRECIPITATION OR FOG.

ILZ001-002-007-009-015-016-024-110200-
NORTHWEST ILLINOIS

CITY           SKY/WX    TMP DP  RH WIND       PRES   REMARKS
MOLINE         CLEAR     74  62  66 S3        30.10R
STERLING*      CLEAR     73  61  64 S5        30.13R
SAVANNA*       CLEAR     74  62  65 SE6       30.11S
$$

ILZ003-004-008-010-011-017-018-110200-
NORTH CENTRAL ILLINOIS

CITY           SKY/WX    TMP DP  RH WIND       PRES   REMARKS
ROCKFORD       PTCLDY    74  58  57 S8        30.13S
FREEPORT*      CLEAR     71  63  75 S5        30.14S
ROCHELLE*      CLEAR     70  62  74 S5        30.14R
DE KALB*       CLEAR     70  58  64 S5        30.15R
PERU*          CLEAR     76  55  49 SE6       30.13S
$$

ILZ005-006-012>014-019>023-110200-
NORTHEAST ILLINOIS

CITY           SKY/WX    TMP DP  RH WIND       PRES   REMARKS
CHICAGO-OHARE  PTCLDY    72  48  42 E9        30.15R
CHICAGO-MIDWAY CLEAR     73  47  39 E9        30.15S
AURORA         CLEAR     72  58  61 SE6       30.14R
LANSING*       CLEAR     70  43  37 E5        30.16S
JOLIET*        CLEAR     71  53  53 E9        30.15R
WAUKEGAN       CLEAR     66  54  65 SE8       30.15S
DUPAGE AIRPORT CLEAR     73  53  49 E9        30.14R
KANKAKEE*      CLEAR     70  58  65 E6        30.15R
WHEELING       CLEAR     71  51  49 SE7       30.16S
MORRIS*        CLEAR     72  62  72 E5        30.13S
ROMEOVILLE*    CLEAR     71  51  50 E8        30.14S
NORTHERLY ISL    N/A     68  56  65 E6          N/A
$$

LMZ740>746-110200-
SOUTHERN LAKE MICHIGAN

STATION/POSITION SKY/WX   TEMP    WIND        PRES    VSBY  WAVE
                          AIR SEA DIR/SP/G                  HT/PER
                          (F)     (DEG/KT/KT) (MB)    (MI)  (FT/S)
SOUTHERN BUOY              64 62   CALM  /  2 1021.1F         0
WAUKEGAN HARBOR            67     160/  9/  9 1022.0S
HARRISON CRIB              69     130/  8/  8   N/A
BURNHAM HARBOR             68     120/  3/  7   N/A
CALUMET HARBOR             69     110/  6/  7 1021.9S
MICHIGAN CITY              69      40/  8/  9   N/A
$$

ILZ025>027-034>036-040-047-049-050-058-095>099-110200-
WEST-CENTRAL ILLINOIS

CITY           SKY/WX    TMP DP  RH WIND       PRES   REMARKS
QUINCY         CLEAR     75  58  55 SE6       30.10S
GALESBURG*     CLEAR     76  62  62 CALM      30.12R
MACOMB*        CLEAR     71  62  71 SE6       30.13S
JACKSONVILLE*  CLEAR     74  62  66 E6        30.13R
PITTSFIELD*    CLEAR     74  60  61 E5        30.12R
$$

ILZ028>032-037-038-041>044-048-051>054-059>061-110200-
CENTRAL ILLINOIS

CITY           SKY/WX    TMP DP  RH WIND       PRES   REMARKS
PONTIAC        CLEAR     73  64  73 CALM      30.13F
BLOOMINGTON    CLEAR     72  60  65 E6        30.15S
DECATUR        CLEAR     73  59  61 E5        30.13S
PEORIA         CLEAR     76  56  49 SE5       30.13R
LACON*         CLEAR     74  58  57 SE5       30.11F
LINCOLN*       CLEAR     74  62  65 CALM      30.10S
SPRINGFIELD    CLEAR     76  56  49 E8        30.12S
TAYLORVILLE    CLEAR     72  55  56 E5        30.12S
$$

ILZ033-039-045-046-055>057-062-063-110200-
EAST-CENTRAL ILLINOIS

CITY           SKY/WX    TMP DP  RH WIND       PRES   REMARKS
CHAMPAIGN      CLEAR     71  58  63 E7        30.14S
RANTOUL*       CLEAR     74  56  52 E3        30.15S
MATTOON        CLEAR     72  56  57 NE6       30.12S
PARIS*         CLEAR     71  60  67 CALM      30.14S
$$

ILZ079-100>102-110200-
SOUTHWEST ILLINOIS

CITY           SKY/WX    TMP DP  RH WIND       PRES   REMARKS
ALTON          CLEAR     75  61  60 NE6       30.10S
BELLEVILLE     CLEAR     78  59  52 E5        30.08F
CAHOKIA*       CLEAR     78  56  46 E7        30.09S
SPARTA*        PTCLDY    77  61  57 CALM      30.10S
$$

ILZ064>066-069>071-074>076-080>082-084>086-088>090-092>094-110200-
SOUTH-CENTRAL ILLINOIS

CITY           SKY/WX    TMP DP  RH WIND       PRES   REMARKS
CARBONDALE     PTCLDY    77  69  76 CALM      30.09R
CAIRO*         MOCLDY    81  65  58 N3        30.09R HX  82
MARION         MOCLDY    75  68  78 CALM      30.10R
MT. VERNON     CLEAR     75  59  57 N3        30.11R
CENTRALIA*     CLEAR     78  56  46 CALM      30.10S
SALEM*         CLEAR     78  59  50 CALM      30.11S HX  80
METROPOLIS*    MOCLDY    76  62  61 CALM      30.08S
$$

ILZ067-068-072-073-078-083-087-091-110200-
SOUTHEAST ILLINOIS

CITY           SKY/WX    TMP DP  RH WIND       PRES   REMARKS
FLORA*         CLEAR     76  57  51 NE5       30.11S
HARRISBURG*    MOCLDY    78  61  56 CALM      30.10S
ROBINSON*      CLEAR     75  61  60 NE5       30.13R
CARMI*         PTCLDY    74  66  75 N5        30.09R
$$

ABBREVIATIONS USED IN REMARKS
   TC - TEMPERATURE IN CELSIUS
  WCI - WIND CHILL INDEX
   HX - HEAT INDEX
  VSB - VISIBILITY
$$



USA.gov is the U.S. government's official web portal to all federal, state and local government web resources and services.